{"data":{"norad_id":52310,"intl_designator":"2022-041BB","name":"STARLINK-3688","alt_names":[],"object_type":"PAYLOAD","status":"ACTIVE","operator":null,"country":"US","launch_date":"2022-04-21","launch_site_code":"AFETR","launch_vehicle":null,"mission":null,"orbit_class":"UNKNOWN","rcs_meters":null,"size_class":null,"mass_kg":null,"dimensions":null,"purposes":["comms"],"wikipedia_slug":null,"has_3d_model":false,"image_url":null,"decayed_at":null,"tle_current":{"epoch":"2026-05-25T03:21:45.599904Z","epoch_age_seconds":56309,"freshness":"FRESH","line1":"1 52310U 22041BB  26145.14011111  .00001094  00000+0  86827-4 0  9996","line2":"2 52310  53.2136 105.9858 0001301  73.5228 286.5907 15.08838019227406","mean_motion":15.08838019,"eccentricity":0.0001301,"inclination_deg":53.2136,"raan_deg":105.9858,"arg_perigee_deg":73.5228,"mean_anomaly_deg":286.5907,"bstar":8.6827e-5,"rev_number":22740,"period_min":95.437679980677,"perigee_km":538.84942706884,"apogee_km":540.64946112159,"semimajor_km":6917.8864440952,"source":"CELESTRAK","updated_at":"2026-05-25T13:38:17.111070Z"}}}